Location: Rancho Del Sol Observatory
(38.7214°N, 120.6350°W)
Time: 22:16:36
(UTC-08:00)

A-11 Canister half - Pass Details

Date: 06 February 2020
Orbit: 1517 x 1683 km, 47.2° (Epoch: 17 February)

Event Time Altitude Azimuth Distance (km) Brightness Sun altitude
Rises 04:22:30 0° 294° (WNW) 4,672 - -31.9°
Reaches altitude 10° 04:26:12 10° 282° (WNW) 3,679 - -31.1°
Maximum altitude 04:33:15 25° 232° (SW) 2,675 - -29.8°
Exits shadow 04:36:29 21° 203° (SSW) 2,921 10.2 -29.1°
Drops below altitude 10° 04:40:19 10° 181° (S) 3,686 10.9 -28.4°
Sets 04:44:04 0° 169° (S) 4,682 11.7 -27.7°
